[[[{"header":{"parameterUnit":"kt","parameterCategory":2,"dx":1,"dy":1,"la1":30.253999710083008,"la2":30.299108505249023,"lo1":-89.0895004272461,"lo2":-89.04439544677734,"nx":28,"ny":28,"refTime":"2022-10-01T21:00:00:Z","depth":0,"parameterNumber":1,"parameterNumberName":"U-component_of_WINDS"},"data":[-0.9584,-0.9711,-0.971,-0.9855,-0.9879,-0.9978,-1.0014,-1.0059,-1.0095,-1.0214,-1.0281,-1.0293,-1.0329,-1.0411,-1.0484,-1.0488,-1.0522,-1.0567,-1.0565,-1.036,-1.0332,-1.0306,-1.0277,-1.0573,-1.0573,-1.078,-1.0782,-1.0783,-0.9434,-0.9459,-0.9535,-0.9608,-0.9673,-0.9629,-0.9683,-0.9742,-0.9832,-0.9876,-0.9943,-1.0047,-1.0129,-1.015,-1.0229,-1.0289,-1.0275,-1.0311,-1.031,-1.0318,-1.0097,-1.0066,-1.0322,-1.0322,-1.0322,-1.0322,-1.0322,-1.0322,-0.9163,-0.9239,-0.9283,-0.9365,-0.9401,-0.945,-0.9523,-0.9536,-0.961,-0.9692,-0.9676,-0.9778,-0.9823,-0.9917,-0.9949,-1.0029,-0.9989,-1.003,-1.0041,-1.0053,-1.0068,-0.9778,-1.0041,-1.004,-1.004,-1.0039,-1.0039,0,-0.8966,-0.8961,-0.9033,-0.9105,-0.9165,-0.9221,-0.9272,-0.9317,-0.9304,-0.9366,-0.9456,-0.9508,-0.9609,-0.9695,-0.9768,-0.9793,-0.9758,-0.9751,-0.9781,-0.9795,-0.9797,-0.9803,-0.9449,-0.9746,-0.9743,-0.9741,-0.974,-0.9739,-0.8698,-0.8784,-0.8829,-0.888,-0.8908,-0.899,-0.9039,-0.9021,-0.9075,-0.9135,-0.9203,-0.9287,-0.9354,-0.9498,-0.9514,-0.959,-0.9575,-0.9689,-0.9587,-0.9594,-0.9584,-0.9582,-0.9592,-0.9712,-0.9715,-0.9718,-0.972,0,-0.8548,-0.8546,-0.868,-0.8716,-0.8727,-0.882,-0.8851,-0.8925,-0.8929,-0.9033,-0.9056,-0.9064,-0.9153,-0.915,-0.925,-0.9246,-0.9402,-0.9381,-0.9387,-0.9385,-0.9491,-0.9483,-0.9826,-0.9871,-0.9558,-0.9561,-0.9563,0,-0.8321,-0.8435,-0.8427,-0.8505,-0.8631,-0.8611,-0.8736,-0.8753,-0.8791,-0.8872,-0.8828,-0.8906,-0.8889,-0.8966,-0.896,-0.9086,-0.9103,-0.911,-0.9109,-0.9118,-0.9118,-0.9152,-0.914,-0.9094,-0.9092,-0.9091,-0.9089,0,-0.8092,-0.8219,-0.8344,-0.8373,-0.8424,-0.8483,-0.8507,-0.8549,-0.8598,-0.8659,-0.8691,-0.8763,-0.8805,-0.8862,-0.8856,-0.8787,-0.9007,-0.8911,-0.9015,-0.9016,-0.907,-0.9068,-0.9365,-0.9087,-0.9087,-0.9086,-0.9085,0,-0.7911,-0.7972,-0.8153,-0.8195,-0.8229,-0.8311,-0.8383,-0.8452,-0.8499,-0.8501,-0.855,-0.8522,-0.8628,-0.8533,-0.8681,-0.8594,-0.8637,-0.8652,-0.8659,-0.8675,-0.8571,-0.8747,-0.9025,-0.9057,-0.868,-0.8677,-0.8674,0,-0.7652,-0.7833,-0.7817,-0.7989,-0.8073,-0.802,-0.811,-0.8154,-0.8164,-0.8237,-0.8247,-0.8331,-0.8259,-0.8286,-0.8358,-0.8374,-0.8486,-0.8358,-0.847,-0.8474,-0.8465,-0.8719,-0.8765,-0.8963,-0.863,-0.8635,-0.8638,0,-0.7451,-0.751,-0.7542,-0.7576,-0.7629,-0.7699,-0.7801,-0.788,-0.793,-0.7981,-0.8071,-0.8185,-0.8138,-0.8181,-0.8167,-0.8242,-0.841,-0.8182,-0.8183,-0.8228,-0.8606,-0.865,-0.8683,-0.8383,-0.8388,-0.8393,-0.8604,0,-0.7188,-0.7277,-0.7361,-0.7435,-0.7487,-0.7593,-0.7591,-0.7646,-0.7626,-0.7635,-0.7763,-0.7798,-0.7879,-0.7913,-0.7896,-0.8068,-0.804,-0.7989,-0.7902,-0.8066,-0.8137,-0.8165,-0.7798,-0.7795,-0.7793,-0.7791,0,0,-0.6944,-0.7072,-0.7052,-0.7151,-0.7195,-0.7139,-0.7254,-0.729,-0.7364,-0.7397,-0.7346,-0.7516,-0.7547,-0.7704,-0.7754,-0.7785,-0.7818,-0.776,-0.7987,-0.8009,-0.8029,-0.8104,-0.8133,-0.7787,-0.7787,-0.7786,-0.7785,0,-0.6849,-0.6878,-0.699,-0.7026,-0.7079,-0.7082,-0.7109,-0.7152,-0.7163,-0.7287,-0.7242,-0.7318,-0.7453,-0.7494,-0.7532,-0.7739,-0.7704,-0.7763,-0.7877,-0.7965,-0.7989,-0.8011,-0.809,-0.8118,-0.778,-0.778,-0.778,0,-0.6656,-0.6686,-0.6739,-0.6833,-0.6868,-0.6955,-0.6862,-0.6956,-0.7021,-0.6958,-0.7083,-0.7103,-0.7156,-0.7302,-0.7367,-0.7325,-0.7601,-0.7512,-0.7525,-0.7535,-0.7619,-0.7649,-0.7675,-0.7329,-0.7327,-0.7326,0,0,-0.6574,-0.6656,-0.6685,-0.6813,-0.6838,-0.6844,-0.689,-0.6876,-0.6924,-0.6944,-0.6969,-0.7018,-0.7097,-0.7149,-0.7223,-0.7382,-0.7394,-0.7456,-0.7478,-0.7495,-0.7514,-0.7603,-0.7632,-0.732,-0.732,-0.732,0,0,-0.6536,-0.6575,-0.6546,-0.6694,-0.6741,-0.678,-0.6859,-0.6826,-0.6892,-0.688,-0.6862,-0.6875,-0.7011,-0.7032,-0.6954,-0.7193,-0.7106,-0.7125,-0.7175,-0.7202,-0.7223,-0.7217,-0.6867,0,0,0,0,0,-0.6439,-0.6569,-0.6543,-0.6568,-0.6688,-0.6793,-0.6808,-0.6797,-0.6736,-0.6799,-0.6815,-0.6772,-0.6987,-0.6917,-0.6942,-0.7032,-0.7244,-0.7258,-0.727,-0.7372,-0.74,-0.7424,0,0,0,0,0,0,-0.6448,-0.6478,-0.654,-0.6584,-0.661,-0.6788,-0.6683,-0.6684,-0.6729,-0.6719,-0.677,-0.6774,-0.6767,-0.6903,-0.6926,-0.7012,-0.6859,-0.725,-0.7261,-0.7271,-0.7382,-0.7405,-0.7425,0,0,0,0,0,-0.6456,-0.648,-0.6675,-0.6582,-0.6605,-0.662,-0.6678,-0.6678,-0.6713,-0.6738,-0.674,-0.67,-0.6769,-0.6788,-0.6916,-0.7001,-0.6843,-0.6852,-0.7257,-0.7266,-0.7274,-0.7393,0,0,0,0,0,0,-0.6461,-0.6481,-0.6679,-0.6686,-0.6532,-0.661,-0.6622,-0.6673,-0.6729,-0.6732,-0.6666,-0.6658,-0.6773,-0.6786,-0.6801,-0.6999,-0.683,-0.6839,-0.6844,-0.7264,-0.7271,-0.7277,0,0,0,0,0,0,-0.6467,-0.6487,-0.6683,-0.662,-0.6619,-0.6601,-0.6611,-0.6718,-0.673,-0.6653,-0.6648,-0.6662,-0.6751,-0.6786,-0.6797,-0.6965,-0.682,-0.6828,-0.6834,-0.6838,-0.727,-0.7275,0,0,0,0,0,0,-0.6475,-0.6492,-0.6618,-0.6618,-0.6617,-0.6691,-0.6695,-0.6819,-0.6675,-0.6652,-0.6662,-0.6656,-0.6753,-0.6763,-0.6795,-0.6959,-0.6963,-0.682,-0.6826,-0.683,-0.6833,0,0,0,0,0,0,0,-0.6482,-0.6374,-0.6639,-0.6616,-0.6615,-0.6748,-0.675,-0.6751,-0.6674,-0.6669,-0.6663,-0.6659,-0.6772,-0.6781,-0.6791,-0.6953,0,0,-0.6819,-0.6823,0,0,0,0,0,0,0,0,-0.6367,-0.6373,-0.6639,-0.6641,-0.6642,-0.6748,-0.675,-0.6751,-0.6673,-0.6669,-0.6665,-0.6661,-0.6775,-0.6782,-0.679,0,0,0,0,0,0,0,0,0,0,0,0,0,0,0,-0.664,-0.6641,0,-0.6748,-0.6749,-0.6751,-0.6672,-0.6669,-0.6665,-0.6662,-0.6777,-0.6783,-0.6789,0,0,0,0,0,0,0,0,0,0,0,0,0,0,0,0,0,0,0,0,0,0,0,0,0,0,0,0,0,0,0,0,0,0,0,0,0,0,0,0,0,0,0,0,0,0,0,0,0,0,0,0,0,0,0,0,0,0,0,0,0,0,0,0,0,0,0,0,0]}],[{"header":{"parameterUnit":"kt","parameterCategory":2,"dx":1,"dy":1,"la1":30.253999710083008,"la2":30.299108505249023,"lo1":-89.0895004272461,"lo2":-89.04439544677734,"nx":28,"ny":28,"refTime":"2022-10-01T21:00:00:Z","depth":0,"parameterNumber":2,"parameterNumberName":"V-component_of_WINDS"},"data":[-9.5457,-9.5687,-9.5713,-9.5987,-9.6056,-9.6246,-9.6322,-9.6421,-9.6506,-9.6733,-9.6867,-9.6913,-9.7004,-9.7167,-9.7311,-9.7327,-9.7385,-9.7449,-9.7457,-9.7154,-9.7113,-9.7074,-9.7022,-9.7462,-9.7462,-9.7767,-9.777,-9.7772,-9.5232,-9.5304,-9.5457,-9.5622,-9.5752,-9.5707,-9.5833,-9.5944,-9.6114,-9.622,-9.6353,-9.6553,-9.6713,-9.6783,-9.6939,-9.7043,-9.7029,-9.7084,-9.7076,-9.709,-9.6767,-9.6712,-9.7093,-9.7093,-9.7093,-9.7093,-9.7093,-9.7093,-9.483,-9.4968,-9.5083,-9.5249,-9.5338,-9.5448,-9.5581,-9.5637,-9.5783,-9.5953,-9.5952,-9.6143,-9.6251,-9.645,-9.6521,-9.6668,-9.661,-9.6677,-9.6693,-9.6709,-9.6725,-9.6281,-9.6695,-9.6694,-9.6693,-9.6692,-9.6692,0,-9.4544,-9.4557,-9.4704,-9.4861,-9.4982,-9.5105,-9.522,-9.5303,-9.5333,-9.5453,-9.5628,-9.5732,-9.5935,-9.61,-9.625,-9.6311,-9.6271,-9.627,-9.6315,-9.6319,-9.6303,-9.6314,-9.5785,-9.6257,-9.6253,-9.6251,-9.6249,-9.6247,-9.414,-9.4297,-9.4429,-9.4529,-9.4599,-9.476,-9.486,-9.4875,-9.4981,-9.5123,-9.5241,-9.5407,-9.554,-9.5812,-9.5869,-9.602,-9.6001,-9.6179,-9.6023,-9.6021,-9.6003,-9.5994,-9.6009,-9.6208,-9.6213,-9.6217,-9.6221,0,-9.3909,-9.395,-9.4201,-9.4315,-9.4348,-9.4511,-9.4607,-9.4742,-9.4779,-9.4971,-9.5016,-9.5073,-9.5242,-9.5271,-9.5469,-9.5478,-9.5741,-9.572,-9.5704,-9.5701,-9.5863,-9.5847,-9.6384,-9.6454,-9.5999,-9.6004,-9.6007,0,-9.358,-9.3785,-9.3833,-9.3976,-9.4204,-9.4214,-9.4437,-9.4491,-9.4586,-9.4737,-9.4699,-9.484,-9.4855,-9.5,-9.5014,-9.5234,-9.5271,-9.529,-9.5292,-9.5294,-9.5292,-9.5347,-9.5326,-9.5288,-9.5286,-9.5283,-9.5281,0,-9.3215,-9.348,-9.3714,-9.378,-9.3921,-9.4029,-9.4092,-9.4198,-9.4295,-9.4425,-9.4488,-9.4638,-9.472,-9.4836,-9.4853,-9.4746,-9.5122,-9.4979,-9.5142,-9.5142,-9.5223,-9.5218,-9.5687,-9.5278,-9.5277,-9.5276,-9.5275,0,-9.2954,-9.309,-9.3422,-9.3538,-9.3607,-9.3759,-9.391,-9.4047,-9.4161,-9.418,-9.4282,-9.4259,-9.4455,-9.4311,-9.4579,-9.4436,-9.4518,-9.4554,-9.4567,-9.4585,-9.4422,-9.4682,-9.5127,-9.5174,-9.4603,-9.4597,-9.4592,0,-9.2525,-9.2871,-9.2882,-9.3196,-9.336,-9.3307,-9.3476,-9.3578,-9.3619,-9.3761,-9.3803,-9.3965,-9.3863,-9.3917,-9.4047,-9.4096,-9.4283,-9.4072,-9.4272,-9.4279,-9.4244,-9.4654,-9.4713,-9.5027,-9.4521,-9.4528,-9.4534,0,-9.2197,-9.2368,-9.2424,-9.25,-9.2638,-9.2774,-9.2968,-9.3132,-9.3226,-9.3344,-9.3506,-9.3732,-9.3665,-9.3755,-9.3751,-9.3884,-9.4157,-9.3793,-9.3796,-9.3857,-9.4487,-9.4542,-9.4595,-9.4124,-9.4133,-9.414,-9.4477,0,-9.1793,-9.1971,-9.2123,-9.2292,-9.2401,-9.26,-9.2633,-9.2743,-9.273,-9.2768,-9.3006,-9.3095,-9.3258,-9.3325,-9.3312,-9.3609,-9.3563,-9.3489,-9.3349,-9.3618,-9.373,-9.3775,-9.318,-9.3176,-9.3173,-9.317,0,0,-9.1372,-9.1627,-9.1633,-9.1823,-9.1916,-9.1858,-9.2067,-9.215,-9.2318,-9.2383,-9.2306,-9.2638,-9.2714,-9.2999,-9.3085,-9.3151,-9.3206,-9.3111,-9.349,-9.3526,-9.3559,-9.3678,-9.3725,-9.3165,-9.3163,-9.3162,-9.3161,0,-9.1231,-9.1315,-9.1523,-9.161,-9.1739,-9.1769,-9.1819,-9.1935,-9.1969,-9.2203,-9.2149,-9.2294,-9.256,-9.2647,-9.2726,-9.3078,-9.3027,-9.3125,-9.3304,-9.3456,-9.3496,-9.3531,-9.3656,-9.3701,-9.3153,-9.3154,-9.3154,0,-9.0914,-9.1002,-9.1105,-9.1315,-9.1398,-9.1567,-9.143,-9.1614,-9.1739,-9.1662,-9.1894,-9.1948,-9.2066,-9.2332,-9.2452,-9.2384,-9.2863,-9.2717,-9.2738,-9.2752,-9.29,-9.2948,-9.299,-9.2427,-9.2425,-9.2422,0,0,-9.0787,-9.0953,-9.105,-9.1287,-9.1344,-9.1392,-9.1484,-9.1481,-9.1591,-9.1635,-9.1703,-9.1809,-9.1963,-9.2064,-9.221,-9.2497,-9.2521,-9.2626,-9.266,-9.2688,-9.2717,-9.2872,-9.292,-9.2412,-9.2412,-9.2412,0,0,-9.0726,-9.0849,-9.0817,-9.1097,-9.1205,-9.1314,-9.1457,-9.1419,-9.1554,-9.1535,-9.1534,-9.1562,-9.1811,-9.1865,-9.1728,-9.216,-9.2022,-9.2055,-9.2116,-9.216,-9.2194,-9.2175,-9.1597,0,0,0,0,0,-9.0599,-9.0834,-9.0803,-9.0855,-9.1119,-9.1331,-9.1365,-9.1372,-9.1274,-9.1387,-9.1437,-9.1377,-9.1791,-9.167,-9.172,-9.1872,-9.2284,-9.2306,-9.2328,-9.2474,-9.252,-9.2558,0,0,0,0,0,0,-9.062,-9.0684,-9.0797,-9.0916,-9.0975,-9.1323,-9.1159,-9.1167,-9.1262,-9.1247,-9.1369,-9.1381,-9.1388,-9.1644,-9.1689,-9.1834,-9.1582,-9.2293,-9.2312,-9.2329,-9.249,-9.2527,-9.2559,0,0,0,0,0,-9.0636,-9.0687,-9.1109,-9.0913,-9.0964,-9.1029,-9.115,-9.1156,-9.1229,-9.1307,-9.1317,-9.1226,-9.1392,-9.1431,-9.1671,-9.1813,-9.1551,-9.1568,-9.2305,-9.232,-9.2334,-9.2508,0,0,0,0,0,0,-9.0648,-9.0693,-9.1119,-9.1135,-9.0825,-9.101,-9.1039,-9.1146,-9.1282,-9.1294,-9.1162,-9.1149,-9.1398,-9.1427,-9.1456,-9.1806,-9.1526,-9.1543,-9.1553,-9.2317,-9.2329,-9.2339,0,0,0,0,0,0,-9.0665,-9.0707,-9.1127,-9.1016,-9.1019,-9.0992,-9.1018,-9.1222,-9.1284,-9.1129,-9.1122,-9.1154,-9.1352,-9.1425,-9.1448,-9.1767,-9.1506,-9.1523,-9.1534,-9.1541,-9.2327,-9.2336,0,0,0,0,0,0,-9.0683,-9.0719,-9.1012,-9.1015,-9.1017,-9.1194,-9.1172,-9.1441,-9.1193,-9.1123,-9.117,-9.116,-9.1353,-9.1376,-9.1443,-9.1752,-9.1763,-9.1507,-9.1518,-9.1526,-9.1531,0,0,0,0,0,0,0,-9.0697,-9.0458,-9.1026,-9.1013,-9.1015,-9.1281,-9.1286,-9.129,-9.119,-9.1181,-9.1173,-9.1164,-9.1413,-9.1431,-9.1449,-9.174,0,0,-9.1505,-9.1513,0,0,0,0,0,0,0,0,-9.0443,-9.0454,-9.1027,-9.103,-9.1033,-9.1282,-9.1285,-9.1289,-9.1189,-9.1182,-9.1174,-9.1168,-9.1418,-9.1433,-9.1447,0,0,0,0,0,0,0,0,0,0,0,0,0,0,0,-9.1027,-9.103,0,-9.1282,-9.1285,-9.1288,-9.1188,-9.1182,-9.1176,-9.117,-9.1422,-9.1434,-9.1446,0,0,0,0,0,0,0,0,0,0,0,0,0,0,0,0,0,0,0,0,0,0,0,0,0,0,0,0,0,0,0,0,0,0,0,0,0,0,0,0,0,0,0,0,0,0,0,0,0,0,0,0,0,0,0,0,0,0,0,0,0,0,0,0,0,0,0,0,0]}]]]